Regional Weather Roundup
Issued by NWS

Home | Current Version | Previous Version | Text Only | Print | Product List | Glossary Off
Versions: 1 2 3 4 5 6 7 8 9 10 11 12 13 14 15 16 17 18 19 20 21 22 23 24 25 26 27 28 29 30 31 32 33 34 35 36 37 38 39 40 41 42 43 44 45 46 47 48 49 50

367
ASUS43 KFSD 211702
RWRSD

WEATHER ROUNDUP FOR SOUTH DAKOTA
NATIONAL WEATHER SERVICE SIOUX FALLS SD
1100 AM CST SAT JAN 21 2017

NOTE: "FAIR" INDICATES FEW OR NO CLOUDS BELOW 12,000 FEET WITH NO
SIGNIFICANT WEATHER AND/OR OBSTRUCTIONS TO VISIBILITY.


SDZ001>005-009-010-012>017-211800-
NORTHWEST AND NORTH CENTRAL SOUTH DAKOTA

CITY           SKY/WX    TMP DP  RH WIND       PRES   REMARKS
BUFFALO          N/A     30  25  81 NW13      29.30R WCI  20
FAITH            N/A     31  29  92 W15       29.37R WCI  20
MOBRIDGE       CLOUDY    27  24  89 NW8       29.35R FOG     WCI  19
$$

SDZ012>016-024>037-041>051-057-063-072>074-211800-
SOUTHWEST AND SOUTH CENTRAL SOUTH DAKOTA

CITY           SKY/WX    TMP DP  RH WIND       PRES   REMARKS
RAPID CTY ARPT SUNNY     38  30  73 W5        29.39R
PIERRE         FOG       27  26  96 W7        29.39R VSB 1/4 WCI  19
CUSTER         SUNNY     35  26  69 CALM      29.36R
ELLSWORTH AFB  SUNNY     37  32  81 CALM      29.39R
PHILIP         CLOUDY    35  31  85 W10       29.40R WCI  27
PINE RIDGE     CLOUDY    31  29  92 W8        29.43R WCI  23
SPEARFISH      FAIR      34  30  86 CALM      29.39R
WINNER         FAIR      38  31  76 W7        29.39R
$$

SDZ004>011-016>023-039-040-211800-
NORTHEAST SOUTH DAKOTA

CITY           SKY/WX    TMP DP  RH WIND       PRES   REMARKS
ABERDEEN       CLOUDY    30  25  81 SW3       29.37R
WATERTOWN      FOG       34  34 100 SE5       29.34S VSB 1   WCI  30
BROOKINGS      CLOUDY    35  34  96 SE5       29.35S FOG
SISSETON         N/A     34  34 100 SE9       29.38S WCI  27
$$

SDZ017-020-022-023-036>040-048>070-211800-
SOUTHEAST SOUTH DAKOTA

CITY           SKY/WX    TMP DP  RH WIND       PRES   REMARKS
SIOUX FALLS    CLOUDY    31  31 100 W10       29.39R WCI  22
HURON          CLOUDY    29  27  92 W6        29.39R WCI  23
CHAMBERLAIN    CLOUDY    31  30  98 W9        29.40R FOG     WCI  23
MITCHELL       CLOUDY    31  28  89 W8        29.41R WCI  23
YANKTON        CLOUDY    32  27  80 W9G17     29.42R WCI  24
$$

ABBREVIATIONS USED IN REMARKS
   TC - TEMPERATURE IN CELSIUS
  WCI - WIND CHILL INDEX
   HX - HEAT INDEX
  VSB - VISIBILITY





USA.gov is the U.S. government's official web portal to all federal, state and local government web resources and services.